Preview of NWS' New Version of Forecast
This preview is not operational and should not be used for support decisions.

Regional Weather Roundup (RWR)

Issued by National Weather Service (NWS)

                            
000
ASUS42 KTBW 241715
RWRFL 
FLORIDA REGIONAL WEATHER ROUNDUP
NATIONAL WEATHER SERVICE TAMPA BAY RUSKIN FL
100 PM EDT MON JUN 24 2019

NOTE: "FAIR" INDICATES FEW OR NO CLOUDS BELOW 12,000 FEET WITH NO
SIGNIFICANT WEATHER AND/OR OBSTRUCTIONS TO VISIBILITY.

FLZ001>010-012>015-112-114-115-241800-
PANHANDLE FLORIDA
  
CITY           SKY/WX    TMP DP  RH WIND       PRES   REMARKS
PENSACOLA      FAIR      92  76  59 SW18      30.01R HX 104           
PENSACOLA NAS  PTSUNNY   89  79  72 SW10G22   30.01S HX 104           
MILTON NAS     CLOUDY    84  72  67 W6        30.01S                  
CRESTVIEW      PTSUNNY   92  72  51 SW12      30.02F HX  99           
DUKE FIELD     PTSUNNY   91  72  52 W7        30.01S HX  98           
VALPARAISO     PTSUNNY   91  81  70 SW14G20   30.03R HX 110           
MARY ESTHER    PTSUNNY   89  79  71 SW14G21   30.00S HX 104           
TRI COUNTY     FAIR      92  76  59 SW10G16   30.02  HX 104           
PANAMA CITY    PTSUNNY   89  76  65 SW13      30.02S HX 100           
TYNDALL AFB    PTSUNNY   89  78  68 W16       30.02F HX 103           
APALACHICOLA   LGT RAIN  90  76  63 W16G23    30.04S HX 101           

STATION/POSITION SKY/WX   TEMP    WIND        PRES    WAVE   SWELL
                          AIR SEA DIR/SP/G            HT/PER HT/PER
                          (F)     (DEG/KT/KT) (MB)    (FT/S) (FT/S)
30.1N   87.6W                                   N/A     5/ 6
29.2N   88.2W                     230/ 12/ 14 1017.6R   4/ 5
PANAMA CITY BEAC           85 85  250/ 13/ 16 1017.5F
TOWER C          NOT AVBL

$$
FLZ011-016>038-118-127-128-134-139-239-241800-
NORTH FLORIDA
  
CITY           SKY/WX    TMP DP  RH WIND       PRES   REMARKS
MARIANNA       FAIR      93  74  53 W16       30.01F HX 103           
TALLAHASSEE    FAIR      94  74  52 SW14      30.02S HX 104           
PERRY          FAIR      91  76  61 SW10      30.04S HX 103           
LIVE OAK       MOSUNNY   91  73  55 VRB6      30.02F HX 100           
CROSS CITY     FAIR      91  74  57 SW7       30.04F HX  99           
LAKE CITY      FAIR      90  70  51 SW9       30.03F HX  95           
GAINESVILLE    FAIR      90  72  55 W8        30.06F HX  97           
PALATKA        FAIR      91  73  55 W6        30.03F HX 100           
MAYPORT NAS    FAIR      93  74  53 CALM      30.01F HX 103           
JACKSONVILLE   FAIR      92  76  59 SW12      30.01F HX 104           
JAX NAS        FAIR      93  72  50 VRB5      30.02F HX 101           
JAX CECIL      MOSUNNY   97  70  41 VRB5      30.02F HX 103           
FERNANDINA BEA FAIR      91  76  59 SW7       30.01F HX 103           
ST AUGUSTINE   FAIR      88  79  74 E9        30.03F HX 103           

STATION/POSITION SKY/WX   TEMP    WIND        PRES    WAVE   SWELL
                          AIR SEA DIR/SP/G            HT/PER HT/PER
                          (F)     (DEG/KT/KT) (MB)    (FT/S) (FT/S)
SHELL POINT      NOT AVBL
KEATON BEACH               84     240/  8/  9 1017.6R
CEDAR KEY                  85     230/  5/  7 1018.1R
FERNANDINA                 93 84  230/  4/  6 1017.1F
30.7N   81.3W                 83                N/A     1/ 9
MAYPORT                    88 84  300/  4/  6 1016.9F
31.4N   80.9W              83 83  230/  6/  8 1016.0F   1/10   2/10
ST AUGUSTINE               82 80   90/  8/  9 1016.9F

$$
FLZ040-043>046-052-053-057-058-063-144-241800-
INTERIOR CENTRAL FLORIDA
  
CITY           SKY/WX    TMP DP  RH WIND       PRES   REMARKS
OCALA          FAIR      91  73  55 W5        30.05F HX  99           
LEESBURG       FAIR      89  73  59 SE7       30.06F HX  97           
SANFORD        FAIR      92  70  48 W7        30.04F HX  97           
ORLANDO EXEC   FAIR      92  70  48 W9        30.05S HX  97           
ORLANDO INTL   FAIR      91  69  48 VRB5      30.04F HX  96           
KISSIMMEE      FAIR      92  69  47 VRB5      30.06F HX  97           
WINTER HAVEN   FAIR      93  69  45 W8        30.06F HX  98           
LAKELAND       MOSUNNY   90  72  55 W5        30.07F HX  96           
BARTOW         MOSUNNY   91  70  49 W9        30.05F HX  97           
SEBRING        FAIR      93  72  50 W3        30.05F HX 101           
OKEECHOBEE     FAIR      90  70  51 W5        30.04F HX  95           

$$
FLZ041-047-054-059-064-141-147-241800-
EAST CENTRAL FLORIDA
  
CITY           SKY/WX    TMP DP  RH WIND       PRES   REMARKS
ORMOND BEACH   MOSUNNY   90  77  66 CALM      30.03F HX 102           
DAYTONA BEACH  FAIR      92  76  59 W8        30.03F HX 104           
DELAND         FAIR      91  72  52 SW8       30.04S HX  98           
NEW SMYRNA BEA MOSUNNY   91  77  62 NE7       30.04F HX 105           
JFK SPACE CTR  FAIR      91  62  37 W8        30.03F                  
TITUSVILLE     MOSUNNY   93  70  46 NW8       30.04F HX  99           
CAPE CANAVERAL PTSUNNY   90   5   4 W6        30.03F                  
PATRICK AFB    FAIR      88  80  75 NW3       30.03F HX 104           
MELBOURNE      FAIR      94  75  54 MISG      30.03F HX 105           
VERO BEACH     FAIR      91  77  63 NE10      30.04F HX 104           
FT PIERCE      FAIR      92  77  61 VRB5      30.03F HX 105           
STUART         MOSUNNY   93  72  49 W10       30.05F HX 100           

STATION/POSITION SKY/WX   TEMP    WIND        PRES    WAVE   SWELL
                          AIR SEA DIR/SP/G            HT/PER HT/PER
                          (F)     (DEG/KT/KT) (MB)    (FT/S) (FT/S)
28.5N   80.2W              81 82  330/  6/  8 1017.2F   1/ 9   2/ 9
28.9N   78.5W              84 84  270/ 12/ 16 1017.4F
TRIDENT PIER               88 74  290/  2/  3 1018.9F
28.4N   80.5W                 80                N/A     1/ 9
27.5N   80.2W                 82                N/A     1/ 9

$$
FLZ050-056-061-142-242-148-248-149-249-151-251-155-255-
160-260-241800-
WEST CENTRAL FLORIDA
  
CITY           SKY/WX    TMP DP  RH WIND       PRES   REMARKS
CRYSTAL RIVER  FAIR     N/A N/A N/A W6        30.06S                  
INVERNESS      FAIR      91  70  49 CALM      30.06S HX  97           
BROOKSVILLE    FAIR      92  74  55 MISG      30.07S HX 101           
CLEARWATER AIR FAIR      86  72  62 W8        30.06S                  
ST PETE CLEARW FAIR      89  72  56 NW7       30.06S HX  96           
TAMPA INTL     FAIR      88  77  69 SW6       30.06F HX 100           
PLANT CITY       N/A    N/A N/A N/A MISG        N/A                   
MACDILL AFB    FAIR      89  76  65 S8        30.06F HX 100           
PETER O KNIGHT PTSUNNY   90  79  70 S8        30.06F HX 105           
ST PETERSBURG  FAIR      88  72  58 SW7       30.04F                  
SARASOTA       FAIR      89  74  60 W9        30.04F HX  98           
VENICE         FAIR      90  77  66 SW7       30.07S HX 102           

STATION/POSITION SKY/WX   TEMP    WIND        PRES    WAVE   SWELL
                          AIR SEA DIR/SP/G            HT/PER HT/PER
                          (F)     (DEG/KT/KT) (MB)    (FT/S) (FT/S)
27.3N   84.2W                 87                N/A     1/10
CLEARWATER BEACH           85 88  230/  7/  8 1018.5R
MIDDLE TAMPA BAY           84     270/  7/  9 1018.4F
VENICE                     86 86  250/  6/  7 1018.0F

$$
FLZ066-069-070-075>078-162-262-165-265-241800-
SOUTHWEST FLORIDA AND KEYS
  
CITY           SKY/WX    TMP DP  RH WIND       PRES   REMARKS
PUNTA GORDA    FAIR      91  71  51 W10       30.07F HX  97           
FT MYERS       FAIR      92  62  36 VRB5      30.04F                  
SOUTHWEST INTL FAIR      91  72  53 CALM      30.05F HX  98           
NAPLES         FAIR      91  73  55 W9        30.05S HX  99           
IMMOKALEE      FAIR      97  72  44 W6        30.02F HX 105           
MARATHON       CLOUDY    90  76  63 VRB3      30.05S HX 101           
KEY WEST NAS   FAIR      91  76  61 VRB7      30.05F HX 103           
KEY WEST INTL  FAIR      87  76  69 SE7       30.05F HX  97           

STATION/POSITION SKY/WX   TEMP    WIND        PRES    WAVE   SWELL
                          AIR SEA DIR/SP/G            HT/PER HT/PER
                          (F)     (DEG/KT/KT) (MB)    (FT/S) (FT/S)
NAPLES                     93 89              1018.1R
DRY TORTUGAS               85     150/  3/  4 1017.9F
SAND KEY                   84                 1017.8F
SOMBRERO KEY               86                 1017.1F

$$
FLZ067-068-071>074-168-172>174-241800-
SOUTHEAST FLORIDA 
  
CITY           SKY/WX    TMP DP  RH WIND       PRES   REMARKS
W PALM BEACH   FAIR      93  74  53 NW8       30.04F HX 103           
FT LAUDER-EXEC PTSUNNY   92  73  53 W7        30.03F HX 100           
FT LAUDERDALE  FAIR      93  73  52 W8        30.02F HX 102           
POMPANO BEACH  FAIR      94  73  50 NW6       30.03F HX 103           
PEMBROKE PINES FAIR      94  71  47 VRB5      30.04F HX 101           
OPA LOCKA      FAIR      93  74  53 VRB5      30.04F HX 103           
MIAMI          FAIR      94  69  44 CALM      30.04F HX  99           
WEST KENDALL   FAIR      94  74  52 NW9       30.04F HX 104           
HOMESTEAD      PTSUNNY   91  73  54 N3        30.03F HX  99           

STATION/POSITION SKY/WX   TEMP    WIND        PRES    WAVE   SWELL
                          AIR SEA DIR/SP/G            HT/PER HT/PER
                          (F)     (DEG/KT/KT) (MB)    (FT/S) (FT/S)
VIRGINIA KEY               89 90  170/  3/  4 1016.9F
LAKE WORTH                 90 83  310/  8/ 10 1018.3F
FOWEY ROCKS                90 85  150/  3/  3 1017.6F
SETTLEMENT POINT           85     250/  8/  9 1017.8F

$$